Regional Weather Roundup
Issued by NWS Lake Charles, LA

Current Version | Previous Version | Text Only | Print | Product List | Glossary On
Versions: 1 2 3 4 5 6 7 8 9 10 11 12 13 14 15 16 17 18 19 20 21 22 23 24 25 26 27 28 29 30 31 32 33 34 35 36 37 38 39 40 41 42 43 44 45 46 47
000
ASUS44 KLCH 011110
RWRLCH
RWRLCH
REGIONAL WEATHER ROUNDUP
NATIONAL WEATHER SERVICE LAKE CHARLES LA
600 AM CDT SAT AUG 01 2015

Note: "fair" indicates few or no clouds below 12,000 feet with no
significant weather and/or obstructions to visibility.


ACROSS SOUTHEAST TEXAS

CITY           SKY/WX    TMP DP  RH WIND       PRES   REMARKS
BEAUMONT       CLEAR     74  66  76 N7        29.93R
BEAUMONT CITY    N/A     73  65  77 NE6       29.94S
ORANGE         SUNNY     72  62  72 CALM      29.95S
JASPER         CLEAR     76  67  73 N5        29.99S
$$

ACROSS CENTRAL LOUISIANA

CITY           SKY/WX    TMP DP  RH WIND       PRES   REMARKS
LEESVILLE      CLEAR     74  65  73 NE6       29.96S
FULLERTON        N/A     72  65  78 VRB3      29.95S
ALEXANDRIA INT CLEAR     73  66  78 N5        29.95S
ESLER FIELD    CLEAR     74  66  76 CALM      29.97R
DERIDDER         N/A     73  66  76 N3        29.97F
OAKDALE        SUNNY     72  67  82 N5        29.94S
OPELOUSAS        N/A    N/A N/A N/A N3        29.93S
$$

ACROSS SOUTHWEST AND SOUTH CENTRAL LOUISIANA

CITY           SKY/WX    TMP DP  RH WIND       PRES   REMARKS
SULPHUR        SUNNY     76  65  67 N5        29.93S
LAKE CHARLES   CLEAR     74  66  76 NE9       29.92S
CHENNAULT INT  CLEAR     72  66  83 N6        29.93S
CAMERON PHI    SUNNY     73  66  78 NE9       29.94S
DEQUINCY         N/A     71  65  80 CALM      29.94S
JENNINGS         N/A     72  67  84 N6        29.92S
LAFAYETTE      CLEAR     72  67  84 N7        29.92R
NEW IBERIA     CLEAR     73  66  78 N8        29.91S
ABBEVILLE        N/A     71  65  84 N6        29.91R
PATTERSON      CLEAR     73  66  78 N6        29.90S
SALT POINT       N/A     75  69  81 MISG      29.87S
$$

SELECTED SITES ACROSS THE REGION

CITY           SKY/WX    TMP DP  RH WIND       PRES   REMARKS
HOUSTON BUSH   PTCLDY    74  65  73 NE8       29.95S
HOUSTON HOBBY  PTCLDY    76  66  71 NE8       29.92F
GALVESTON      CLEAR     83  69  62 N12       29.92F
COLLEGE STAT   CLEAR     74  62  66 NE6       29.99R
CONROE         CLEAR     74  62  66 NE5       29.97F
HUNTSVILLE     CLEAR     68  64  87 CALM      29.98F
LUFKIN         CLEAR     70  64  81 N3        29.99R
SHREVEPORT     PTCLDY    76  64  66 CALM      30.01R
MONROE         CLEAR     70  66  87 N5        30.00S
NATCHEZ MS     CLEAR     66  63  88 N3        29.98R
BATON ROUGE    CLEAR     72  63  73 NE7       29.91F
N.O. INTL ARPT PTCLDY    80  67  64 NE14      29.87F
SLIDELL        CLEAR     67  66  97 N6        29.88F
$$

MARINE REPORTS

STATION/POSITION TIME  TEMP    WIND        PRES    VSBY  WAVE
                       AIR SEA DIR/SP/G                  HT/PER
                 (UTC) (F)     (DEG/KT/KT) (MB)    (MI)  (FT/S)
BUOY 30 S HIGH I 1050   84 86   30/ 14/ 16 1011.9F         2/ 4
SEA RIM ST PARK  1100   74      10/  4/  5 1013.8R
PORT ARTHUR      1000      88   CALM  /  6 1013.2F
SABINE PASS N    1000   75 88   30/  8/ 10 1013.2F
TEXAS POINT      NOT AVBL
CALCASIEU PASS   1000   76 86   60/ 10/ 13 1011.9F
LK CHARLES BEACH 1000   76 88                N/A
MARSH ISLAND     1000   83      60/ 14/ 17   N/A           0
FRESH WATER LOCK 1000   75 88   30/  6/  7 1012.0F
AMERADA PASS     1000   77 86   20/  2/  4 1011.5F
$$


USA.gov is the U.S. government's official web portal to all federal, state and local government web resources and services.